This is the latest recevied weather packets stored in our database for station/object N8RJH-13. If no packets are shown the sender has not sent any weather packets the latest 10 day(s).
| Time | Temp. | Humidity | Pressure | Rain* | Wind** | Luminosity | Snow |
|---|---|---|---|---|---|---|---|
| 1787626956 | 20° C | 78% | 1019.9 hPa | - | - | - | - |
| 1787626326 | 20.56° C | 77% | 1019.8 hPa | - | - | - | - |
| 1787625687 | 20.56° C | 77% | 1019.4 hPa | - | - | - | - |
| 1787625066 | 20.56° C | 76% | 1019.5 hPa | - | - | - | - |
| 1787624437 | 21.11° C | 75% | 1019.2 hPa | - | - | - | - |
| 1787623807 | 21.11° C | 75% | 1019.2 hPa | - | - | - | - |
| 1787623199 | 21.67° C | 74% | 1019 hPa | - | - | - | - |
| 1787622567 | 21.67° C | 75% | 1019.2 hPa | - | - | - | - |
| 1787621937 | 21.67° C | 73% | 1019.1 hPa | - | - | - | - |
| 1787621307 | 22.22° C | 73% | 1018.8 hPa | - | - | - | - |
| 1787620677 | 22.22° C | 73% | 1018.8 hPa | - | - | - | - |
| 1787620056 | 22.22° C | 73% | 1018.4 hPa | - | - | - | - |
| 1787619416 | 22.78° C | 71% | 1018.3 hPa | - | - | - | - |
| 1787618796 | 23.33° C | 70% | 1018.2 hPa | - | - | - | - |
| 1787618157 | 23.33° C | 69% | 1018.1 hPa | - | - | - | - |
| 1787617527 | 23.89° C | 68% | 1017.9 hPa | - | - | - | - |
| 1787616896 | 24.44° C | 67% | 1017.9 hPa | - | - | - | - |
| 1787616276 | 25° C | 64% | 1017.6 hPa | - | - | - | - |
| 1787615646 | 25.56° C | 63% | 1017.6 hPa | - | - | - | - |
| 1787615006 | 26.11° C | 61% | 1017.5 hPa | - | - | - | - |
| 1787614386 | 26.67° C | 61% | 1017.4 hPa | - | - | - | - |
| 1787613776 | 27.78° C | 58% | 1017.4 hPa | - | - | - | - |
| 1787612527 | 28.33° C | 56% | 1017.4 hPa | - | - | - | - |
| 1787611896 | 28.33° C | 54% | 1017.3 hPa | - | - | - | - |
| 1787610628 | 28.89° C | 54% | 1017.2 hPa | - | - | - | - |
* Rain since midnight (hover to see other rain measurements)
** Current wind speed in m/s (hover to see current wind gust speed)